Perry, FL

1:58 PM EDT on April 24, 2017 (GMT -0400)
Perry

Weather History for K40J - August, 2013

Change the Weather History Date:

Sunday, August 4, 2013

  Actual Average (KVLD) Record (KVLD)
Temperature  
Mean Temperature 84 °F -  
Max Temperature 96 °F 89 °F 102 °F (2011)
Min Temperature 73 °F 69 °F 33 °F (1996)
Cooling Degree Days 19    
Growing Degree Days 34 (Base 50)    
Moisture  
Dew Point 75 °F    
Average Humidity 79    
Maximum Humidity 100    
Minimum Humidity 49    
Precipitation  
Precipitation 0.01 in - - ()
Sea Level Pressure  
Sea Level Pressure 30.03 in    
Wind  
Wind Speed 4 mph (West)    
Max Wind Speed 14 mph    
Max Gust Speed -    
Visibility 9 miles    
Events Rain , Thunderstorm    
Averages and records for this station are not official NWS values.
T = Trace of Precipitation, MM = Missing Value Source: NWS Daily Summary

Daily Weather History Graph

Daily Weather History Graph

Search for Another Location

Airport or City:

Trip Planner

Search our weather history database for the weather conditions in past years. The results will help you decide how hot, cold, wet, or windy it might be!

Date:

Astronomy

Aug. 04, 2013 Rise Set
Actual Time 6:55 AM EDT 8:25 PM EDT
Civil Twilight 6:29 AM EDT 8:50 PM EDT
Nautical Twilight 5:58 AM EDT 9:21 PM EDT
Astronomical Twilight 5:26 AM EDT 9:53 PM EDT
Moon 4:56 AM EDT (8/4) 6:47 PM EDT (8/4)
Length of Visible Light 14h 21m
Length of Day
13h 29m
Waning Crescent, 5% of the Moon is Illuminated
Aug 4
Waning Crescent
Aug 6
New
Aug 14
First Quarter
Aug 20
Full
Aug 28
Last Quarter

Hourly Weather History & Observations

Time (EDT) Temp. Heat Index Dew Point Humidity Pressure Visibility Wind Dir Wind Speed Gust Speed Precip Events Conditions
12:15 AM 77.0 °F - 73.4 °F 89% 30.08 in 7.0 mi Calm Calm - N/A   Clear
12:35 AM 77.0 °F - 73.4 °F 89% 30.07 in 10.0 mi Calm Calm - N/A   Clear
12:53 AM 78.1 °F - 73.9 °F 87% 30.06 in - West 3.5 mph - N/A   Unknown
12:55 AM 77.0 °F - 73.4 °F 89% 30.07 in 10.0 mi Calm Calm - N/A   Clear
1:15 AM 77.0 °F - 73.4 °F 89% 30.06 in 10.0 mi WSW 3.5 mph - N/A   Clear
1:35 AM 77.0 °F - 73.4 °F 89% 30.06 in 10.0 mi Calm Calm - N/A   Clear
1:53 AM 78.1 °F - 73.9 °F 87% 30.04 in - West 3.5 mph - N/A   Unknown
1:55 AM 77.0 °F - 73.4 °F 89% 30.06 in 10.0 mi West 3.5 mph - N/A   Clear
2:15 AM 77.0 °F - 73.4 °F 89% 30.05 in 10.0 mi Calm Calm - N/A   Clear
2:35 AM 77.0 °F - 73.4 °F 89% 30.05 in 10.0 mi Calm Calm - N/A   Clear
2:53 AM 78.1 °F - 73.9 °F 87% 30.04 in - Calm Calm - N/A   Unknown
2:55 AM 77.0 °F - 73.4 °F 89% 30.05 in 10.0 mi Calm Calm - N/A   Clear
3:15 AM 75.2 °F - 73.4 °F 94% 30.05 in 10.0 mi Calm Calm - N/A   Clear
3:35 AM 75.2 °F - 73.4 °F 94% 30.04 in 10.0 mi Calm Calm - N/A   Clear
3:53 AM 77.0 °F - 73.9 °F 90% 30.02 in - West 3.5 mph - N/A   Unknown
3:55 AM 75.2 °F - 73.4 °F 94% 30.04 in 7.0 mi Calm Calm - N/A   Clear
4:15 AM 73.4 °F - 71.6 °F 94% 30.03 in 7.0 mi Calm Calm - N/A   Clear
4:35 AM 73.4 °F - 71.6 °F 94% 30.03 in 7.0 mi Calm Calm - N/A   Clear
4:53 AM 75.9 °F - 73.0 °F 91% 30.01 in - Calm Calm - N/A   Unknown
4:55 AM 73.4 °F - 71.6 °F 94% 30.03 in 7.0 mi Calm Calm - N/A   Clear
5:15 AM 73.4 °F - 71.6 °F 94% 30.02 in 7.0 mi Calm Calm - N/A   Clear
5:35 AM 73.4 °F - 73.4 °F 100% 30.02 in 7.0 mi Calm Calm - N/A   Clear
5:53 AM 75.9 °F - 73.0 °F 91% 30.01 in - Calm Calm - N/A   Unknown
5:55 AM 73.4 °F - 73.4 °F 100% 30.03 in 7.0 mi Calm Calm - N/A   Clear
6:15 AM 75.2 °F - 73.4 °F 94% 30.03 in 7.0 mi Calm Calm - N/A   Clear
6:35 AM 73.4 °F - 71.6 °F 94% 30.04 in 5.0 mi Calm Calm - N/A   Clear
6:53 AM 75.9 °F - 73.0 °F 91% 30.03 in - NW 3.5 mph - N/A   Unknown
6:55 AM 73.4 °F - 71.6 °F 94% 30.04 in 5.0 mi NNW 3.5 mph - N/A   Clear
7:15 AM 73.4 °F - 73.4 °F 100% 30.05 in 5.0 mi Calm Calm - N/A   Clear
7:35 AM 73.4 °F - 73.4 °F 100% 30.05 in 5.0 mi Calm Calm - N/A   Clear
7:53 AM 78.1 °F - 75.0 °F 90% 30.04 in - Calm Calm - 0.01 in   Unknown
7:55 AM 77.0 °F - 73.4 °F 89% 30.05 in 5.0 mi Calm Calm - N/A   Scattered Clouds
8:15 AM 77.0 °F - 75.2 °F 94% 30.06 in 7.0 mi West 3.5 mph - N/A   Mostly Cloudy
8:35 AM 78.8 °F - 77.0 °F 94% 30.06 in 10.0 mi West 4.6 mph - N/A   Scattered Clouds
8:53 AM 82.0 °F 90.2 °F 77.0 °F 85% 30.05 in - West 8.1 mph - N/A   Unknown
8:55 AM 78.8 °F - 77.0 °F 94% 30.07 in 10.0 mi West 8.1 mph - N/A   Scattered Clouds
9:15 AM 80.6 °F 87.1 °F 77.0 °F 89% 30.08 in 10.0 mi West 8.1 mph - N/A   Clear
9:35 AM 82.4 °F 90.9 °F 77.0 °F 84% 30.07 in 10.0 mi WNW 8.1 mph - N/A   Mostly Cloudy
9:53 AM 84.0 °F 93.7 °F 77.0 °F 79% 30.06 in - WNW 6.9 mph - N/A   Unknown
9:55 AM 82.4 °F 90.9 °F 77.0 °F 84% 30.08 in 10.0 mi WNW 6.9 mph - N/A   Mostly Cloudy
10:15 AM 84.2 °F 94.1 °F 77.0 °F 79% 30.08 in 10.0 mi NW 10.4 mph - N/A   Scattered Clouds
10:35 AM 84.2 °F 94.1 °F 77.0 °F 79% 30.08 in 10.0 mi NW 5.8 mph - N/A   Mostly Cloudy
10:53 AM 88.0 °F 98.5 °F 75.9 °F 67% 30.06 in - WNW 9.2 mph - N/A   Unknown
10:55 AM 86.0 °F 95.1 °F 75.2 °F 70% 30.08 in 10.0 mi WNW 8.1 mph - N/A   Scattered Clouds
11:15 AM 87.8 °F 97.6 °F 75.2 °F 66% 30.08 in 10.0 mi WNW 8.1 mph - N/A   Scattered Clouds
11:35 AM 86.0 °F 95.1 °F 75.2 °F 70% 30.07 in 10.0 mi WNW 5.8 mph - N/A   Scattered Clouds
11:53 AM 90.0 °F 100.2 °F 75.0 °F 61% 30.05 in - West 9.2 mph - N/A   Unknown
11:55 AM 87.8 °F 95.6 °F 73.4 °F 62% 30.07 in 10.0 mi West 9.2 mph - N/A   Mostly Cloudy
12:15 PM 89.6 °F 98.2 °F 73.4 °F 59% 30.06 in 10.0 mi NW 6.9 mph - N/A   Scattered Clouds
12:35 PM 87.8 °F 95.6 °F 73.4 °F 62% 30.05 in 10.0 mi WNW 8.1 mph - N/A   Scattered Clouds
12:53 PM 91.9 °F 101.3 °F 73.9 °F 55% 30.04 in - NNW 9.2 mph - N/A   Unknown
12:55 PM 89.6 °F 98.2 °F 73.4 °F 59% 30.05 in 10.0 mi NNW 8.1 mph - N/A   Mostly Cloudy
1:15 PM 89.6 °F 98.2 °F 73.4 °F 59% 30.05 in 10.0 mi NW 8.1 mph - N/A   Mostly Cloudy
1:35 PM 89.6 °F 96.2 °F 71.6 °F 55% 30.03 in 10.0 mi NNW 6.9 mph - N/A   Scattered Clouds
1:53 PM 95.0 °F 104.5 °F 73.0 °F 49% 30.01 in - NNW 9.2 mph - N/A   Unknown
1:55 PM 91.4 °F 98.4 °F 71.6 °F 52% 30.02 in 10.0 mi NNW 9.2 mph - N/A   Clear
2:15 PM 91.4 °F 96.8 °F 69.8 °F 49% 30.02 in 10.0 mi WNW 8.1 mph - N/A   Clear
2:35 PM 91.4 °F 100.1 °F 73.4 °F 55% 30.02 in 10.0 mi SW 9.2 mph - N/A Thunderstorm Thunderstorm
2:53 PM 93.0 °F 106.7 °F 77.0 °F 59% 29.99 in - SSW 11.5 mph - N/A   Unknown
2:55 PM 89.6 °F 102.2 °F 77.0 °F 66% 30.01 in 10.0 mi SW 10.4 mph - N/A   Mostly Cloudy
3:15 PM 89.6 °F 96.2 °F 71.6 °F 55% 30.00 in 10.0 mi SW 10.4 mph - N/A   Scattered Clouds
3:35 PM 89.6 °F 96.2 °F 71.6 °F 55% 29.99 in 10.0 mi SW 5.8 mph - N/A   Clear
3:53 PM 91.9 °F 100.7 °F 73.0 °F 54% 29.97 in - SW 13.8 mph - N/A   Unknown
3:55 PM 91.4 °F 98.4 °F 71.6 °F 52% 29.99 in 7.0 mi SW 13.8 mph - N/A   Clear
4:15 PM 89.6 °F 98.2 °F 73.4 °F 59% 29.98 in 10.0 mi SW 9.2 mph - N/A   Clear
4:35 PM 91.4 °F 100.1 °F 73.4 °F 55% 29.98 in 7.0 mi SW 10.4 mph - N/A   Clear
4:53 PM 90.0 °F 102.5 °F 77.0 °F 65% 29.96 in - SW 11.5 mph - N/A   Unknown
4:55 PM 89.6 °F 99.8 °F 75.2 °F 62% 29.98 in 10.0 mi SW 10.4 mph - N/A   Clear
5:15 PM 87.8 °F 99.7 °F 77.0 °F 70% 29.98 in 7.0 mi SW 9.2 mph - N/A   Scattered Clouds
5:35 PM 87.8 °F 99.7 °F 77.0 °F 70% 29.98 in 10.0 mi WSW 10.4 mph - N/A   Clear
5:53 PM 90.0 °F 101.3 °F 75.9 °F 63% 29.96 in - SW 10.4 mph - N/A   Unknown
5:55 PM 87.8 °F 97.6 °F 75.2 °F 66% 29.97 in 10.0 mi SW 11.5 mph - N/A   Clear
6:15 PM 86.0 °F 95.1 °F 75.2 °F 70% 29.98 in 10.0 mi SW 10.4 mph - N/A   Clear
6:35 PM 86.0 °F 96.9 °F 77.0 °F 74% 29.97 in 10.0 mi SW 10.4 mph - N/A   Clear
6:53 PM 86.0 °F 96.9 °F 77.0 °F 74% 29.96 in - SW 9.2 mph - N/A   Unknown
6:55 PM 84.2 °F 94.1 °F 77.0 °F 79% 29.98 in 10.0 mi WSW 6.9 mph - N/A Thunderstorm Clear
7:15 PM 84.2 °F 94.1 °F 77.0 °F 79% 29.99 in 10.0 mi WSW 5.8 mph - N/A Thunderstorm Clear
7:35 PM 82.4 °F 90.9 °F 77.0 °F 84% 29.98 in 10.0 mi WSW 4.6 mph - N/A Thunderstorm Clear
7:53 PM 84.9 °F 95.3 °F 77.0 °F 77% 29.98 in - SW 3.5 mph - N/A   Unknown
7:55 PM 82.4 °F 90.9 °F 77.0 °F 84% 30.00 in 10.0 mi WSW 3.5 mph - N/A Rain Light Rain
8:15 PM 82.4 °F 90.9 °F 77.0 °F 84% 30.00 in 10.0 mi Calm Calm - N/A   Scattered Clouds
8:35 PM 80.6 °F 85.4 °F 73.4 °F 79% 30.01 in 10.0 mi NNE 4.6 mph - N/A   Mostly Cloudy
8:53 PM 82.0 °F 87.9 °F 73.9 °F 76% 29.98 in - Calm Calm - N/A   Unknown
8:55 PM 78.8 °F - 73.4 °F 83% 29.99 in 10.0 mi SSW 3.5 mph - N/A   Scattered Clouds
9:15 PM 78.8 °F - 73.4 °F 83% 30.00 in 10.0 mi Calm Calm - N/A   Clear
9:35 PM 78.8 °F - 73.4 °F 83% 30.00 in 10.0 mi WSW 3.5 mph - N/A   Clear
9:53 PM 82.0 °F 90.2 °F 77.0 °F 85% 29.99 in - SW 4.6 mph - N/A   Unknown
9:55 PM 80.6 °F 87.1 °F 77.0 °F 89% 30.01 in 10.0 mi SW 3.5 mph - N/A   Clear
10:15 PM 80.6 °F 87.1 °F 77.0 °F 89% 30.01 in 10.0 mi SW 3.5 mph - N/A   Clear
10:35 PM 80.6 °F 87.1 °F 77.0 °F 89% 30.02 in 10.0 mi WSW 3.5 mph - N/A   Scattered Clouds
10:53 PM 82.0 °F 90.2 °F 77.0 °F 85% 30.01 in - SW 5.8 mph - N/A   Unknown
10:55 PM 80.6 °F 87.1 °F 77.0 °F 89% 30.02 in 10.0 mi SW 4.6 mph - N/A   Scattered Clouds
11:15 PM 80.6 °F 87.1 °F 77.0 °F 89% 30.02 in 10.0 mi SW 4.6 mph - N/A   Clear
11:35 PM 80.6 °F 87.1 °F 77.0 °F 89% 30.02 in 10.0 mi SW 4.6 mph - N/A   Clear
11:53 PM 82.9 °F 91.8 °F 77.0 °F 82% 30.00 in - WSW 6.9 mph - N/A   Unknown
11:55 PM 80.6 °F 87.1 °F 77.0 °F 89% 30.01 in 10.0 mi WSW 5.8 mph - N/A   Clear